Location: Unspecified
(45.3712°N, 0.6436°E)
Time: 06:52:02
(UTC+02:00)

ISS - Pass Details

Date: 22 July 2018
Orbit: 402 x 408 km, 51.6° (Epoch: 18 July)

Event Time Altitude Azimuth Distance (km) Brightness Sun altitude
Rises 03:41:07 0° 299° (WNW) 2,330 0.1 -20.7°
Reaches altitude 10° 03:43:13 10° 302° (WNW) 1,469 -0.9 -20.5°
Maximum altitude 03:46:29 66° 26° (NNE) 448 -3.5 -20.3°
Drops below altitude 10° 03:49:45 10° 109° (ESE) 1,465 -0.9 -20.0°
Sets 03:51:51 0° 113° (ESE) 2,323 0.1 -19.9°
